Flag for U.S.A. Weather past 2 weeks in Gainesville, Florida, U.S.A.

Now
73 °F

Clear.


Feels Like: 69 °F
Forecast: 74 / 95 °F
Wind: No wind

Location: Gainesville Regional Airport

Current Time: Aug 22, 2014 at 4:56:09 AM

Latest Report: Aug 22, 2014 at 3:53 AM


Visibility: 7 mi

Pressure: 30.05 "Hg

Humidity: 97%

Dew point: 72 °F

Location of GainesvilleLocation

Historic Weather in Gainesville — Graph

°F

Gainesville temperature yesterday

Maximum temperature yesterday: 95 °F (at 3:53 PM)
Minimum temperature yesterday: 74 °F (at 11:53 PM)
Average temperature yesterday: 83 °F

Past Weeks' High & Low Weather Summary

 TemperatureHumidityPressure
High95 °F (Aug 21, 3:53 PM)100% (Aug 10, 1:53 AM)30.13 "Hg (Aug 10, 1:53 AM)
Low71 °F (Aug 15, 4:53 AM)44% (Aug 21, 3:53 PM)29.93 "Hg (Aug 12, 5:53 PM)
Average80 °F83%30.01 "Hg
* Reported Aug 7 3:53 AM — Aug 22 3:53 AM, Gainesville, Weather by CustomWeather, © 2014

Note: Actual official high and low records may vary slightly from our data, if they occured in-between our weather recording intervals... More about our weather records

Advertising

Gainesville weather history for previous 24 hours

 ConditionsComfort  
Time TempWeatherWind HumidityBarometerVisibility
3:53 AM
Aug 22
73 °FClear.No wind97%30.05 "Hg7 mi
2:53 AM74 °FClear.No wind97%30.06 "Hg9 mi
1:53 AM74 °FClear.3 mph97%30.07 "Hg9 mi
12:53 AM75 °FClear.No wind94%30.08 "Hg10 mi
11:53 PM
Aug 21
74 °FClear.No wind97%30.09 "Hg10 mi
10:53 PM75 °FPassing clouds.No wind94%30.11 "Hg10 mi
9:53 PM76 °FThunderstorms. Passing clouds.8 mph85%30.10 "Hg10 mi
9:01 PM78 °FThunderstorms. Broken clouds.N/A76%30.13 "Hg10 mi
7:53 PM79 °FThundershowers. Passing clouds.13 mph74%30.08 "Hg10 mi
6:53 PM82 °FThundershowers. Sunny.13 mph70%30.05 "Hg10 mi
5:53 PM94 °FThundershowers. Sunny.9 mph48%30.03 "Hg10 mi
4:53 PM95 °FPassing clouds.6 mph47%30.02 "Hg10 mi
3:53 PM95 °FScattered clouds.5 mph44%30.04 "Hg10 mi
2:53 PM94 °FScattered clouds.9 mph51%30.06 "Hg10 mi
1:53 PM93 °FPassing clouds.5 mph52%30.08 "Hg10 mi
12:53 PM92 °FScattered clouds.No wind54%30.09 "Hg10 mi
11:53 AM90 °FSunny.No wind59%30.11 "Hg10 mi
10:53 AM89 °FSunny.3 mph61%30.13 "Hg10 mi
9:53 AM86 °FSunny.N/A67%30.13 "HgN/A
8:53 AM80 °FSunny.7 mph85%30.13 "Hg10 mi
7:53 AM77 °FClear.5 mph90%30.10 "Hg8 mi
6:53 AM75 °FClear.3 mph94%30.07 "Hg8 mi
5:53 AM76 °FClear.3 mph94%30.06 "Hg9 mi
4:53 AM77 °FClear.3 mph94%30.06 "Hg9 mi
Weather by CustomWeather, © 2014

See weather overviewHow to use our weather pages